Location: Chippewa Lake
(41.0698°N, 81.9010°W)
Time: 14:29:46
(UTC+00:00)

BlueWalker 3 - Visible Passes

Search period start: 27 November 2022 00:00
Search period end: 07 December 2022 00:00
Orbit: 500 x 519 km, 53.2° (Epoch: 27 November)

Date Brightness Start Highest point End Pass type
(mag) Time Alt. Az. Time Alt. Az. Time Alt. Az.
27 Nov 4.1 00:09:34 10° WNW 00:12:17 18° NNW 00:12:17 18° NNW visible
27 Nov 4.0 23:51:19 10° WNW 23:54:02 18° NNW 23:54:42 17° N visible
28 Nov 4.0 23:33:04 10° WNW 23:35:44 17° NNW 23:37:05 15° N visible
29 Nov 4.1 23:14:48 10° WNW 23:17:25 17° NNW 23:19:26 12° NNE visible
30 Nov 4.1 22:56:32 10° NW 22:59:06 17° NNW 23:01:40 10° NNE visible
01 Dec 4.1 22:38:14 10° NW 22:40:47 16° NNW 22:43:19 10° NNE visible
02 Dec 4.6 00:18:26 10° NNW 00:18:57 12° NNW 00:18:57 12° NNW visible
03 Dec 4.3 00:00:03 10° NNW 00:01:18 14° N 00:01:18 14° N visible
03 Dec 4.1 23:41:40 10° NNW 23:43:40 15° N 23:43:40 15° N visible
04 Dec 3.9 23:23:17 10° NNW 23:25:43 16° N 23:26:05 15° NNE visible
05 Dec 3.8 23:04:53 10° NNW 23:07:21 16° NNE 23:08:32 14° NNE visible
06 Dec 4.9 00:43:06 10° NW 00:43:22 12° NW 00:43:22 12° NW visible
06 Dec 3.8 22:46:29 10° NNW 22:49:00 16° NNE 22:51:04 12° NE visible
